Location: Table Mountain
(47.2500°N, 120.5778°W)
Time: 17:02:35
(UTC-07:00)

Tiangong 2 - Pass Details

Date: 09 October 2017
Orbit: 388 x 391 km, 42.8° (Epoch: 23 October)

Event Time Altitude Azimuth Distance (km) Brightness Sun altitude
Exits shadow 06:33:04 - 230° (SW) 1,893 4.1 -7.5°
Reaches altitude 10° 06:34:23 10° 220° (SW) 1,414 3.6 -7.3°
Maximum altitude 06:37:03 25° 163° (SSE) 841 3.0 -6.9°
Drops below altitude 10° 06:39:44 10° 107° (ESE) 1,419 5.5 -6.4°
Sets 06:42:02 0° 93° (E) 2,276 7.9 -6.0°
